AirNav   Phillips 66 Aviation Fuel
 
 1316 users online  

38N Smyrna Airport
Smyrna, Delaware, USA

GOING TO SMYRNA?


FAA INFORMATION EFFECTIVE 11 OCTOBER 2018

Location

FAA Identifier: 38N
Lat/Long: 39-18-13.2000N / 075-35-01.7000W
39-18.220000N / 075-35.028333W
39.3036667 / -75.5838056
(estimated)
Elevation: 18 ft. / 5 m (estimated)
Variation: 11W (1985)
From city: 1 mile E of SMYRNA, DE
Time zone: UTC -4 (UTC -5 during Standard Time)
Zip code: 19977

Airport Operations

Airport use: Open to the public
Control tower: no
ARTCC: WASHINGTON CENTER
FSS: MILLVILLE FLIGHT SERVICE STATION
NOTAMs facility: MIV (NOTAM-D service available)
Attendance: IREG
Pattern altitude: 818 ft. MSL
Wind indicator: yes
Segmented circle: yes
Lights: ACTVT LIRL RWY 10/28 DUSK-2400 - CTAF.
Beacon: white-green (lighted land airport)

Airport Communications

CTAF/UNICOM: 122.8
WX AWOS-3 at 33N (5 nm S): 120.125 (302-735-9754)
WX AWOS-3 at EVY (15 nm NW): 132.325 (302-378-2063)

Nearby radio navigation aids

VOR radial/distance  VOR name  Freq  Var
ENOr333/5.3SMYRNA VORTAC111.4009W
DQOr187/22.5DUPONT VORTAC114.0010W
OODr223/23.8WOODSTOWN VORTAC112.8010W
PPMr119/28.9PHILLIPS VOR/DME108.4009W
VCNr254/31.8CEDAR LAKE VOR/DME115.2010W
ATRr339/34.3WATERLOO VOR/DME112.6009W
MXEr183/37.1MODENA VORTAC113.2009W
SIEr298/38.5SEA ISLE VORTAC114.8009W

 
NDB name  Hdg/Dist  Freq  Var  ID
RAINBOW263/21.936311WRNB .-. -. -...

Airport Services

Fuel available: 100LL MOGAS
Parking: hangars
Airframe service: NONE
Powerplant service: NONE
Bottled oxygen: NONE
Bulk oxygen: NONE

Runway Information

Runway 10/28

Dimensions: 2600 x 125 ft. / 792 x 38 m
Surface: turf, in good condition
ROLLING SURFACE.
Runway edge lights: low intensity
RUNWAY 10  RUNWAY 28
Latitude: 39-18.208833N39-18.230000N
Longitude: 075-35.303167W075-34.752500W
Gradient: 0.3%0.3%
Traffic pattern: leftleft
Runway end identifier lights: yesyes
Obstructions: 55 ft. trees, 1020 ft. from runway, 18:1 slope to clear78 ft. trees, 1257 ft. from runway, 16:1 slope to clear

Airport Ownership and Management from official FAA records

Ownership: Privately-owned
Owner: BARBARA JONES
305 WOODLAND BEACH RD
SMYRNA, DE 19977
Phone 302-653-8314
Manager: ROBERT JONES
305 WOODLAND BEACH RD
SMYRNA, DE 19977
Phone 302-653-8314

Airport Operational Statistics

Aircraft based on the field: 10
Single engine airplanes: 8
Gliders airplanes: 2
    
Aircraft operations: avg 44/week *
87% local general aviation
13% transient general aviation
* for 12-month period ending 16 April 2018

Additional Remarks

MIGRATORY WATER FOWL ON & INVOF ARPT OCT-FEB.

Instrument Procedures

There are no published instrument procedures at 38N.

Some nearby airports with instrument procedures:

33N - Delaware Airpark (5 nm S)
KDOV - Dover Air Force Base (12 nm SE)
KEVY - Summit Airport (15 nm NW)
58M - Claremont Airport (21 nm NW)
KILG - New Castle Airport (23 nm N)
 
Loc | Ops | Rwys | IFR | FBO | Links
Com | Nav | Svcs | Stats | Notes


 
Area around 38N (Smyrna Airport)
 
Road maps at: MapQuest Bing Google
 
Aerial photo
WARNING: Photo may not be current or correct
Aerial photo of 38N (Smyrna Airport)
Photo courtesy of FlyinPhilsPhotos.com
Taken in the Spring of 2010

Do you have a better or more recent aerial photo of Smyrna Airport that you would like to share? If so, please send us your photo.

 
Sectional chart

 
Airport distance calculator
Flying to Smyrna Airport? Find the distance to fly.

From to 38N

Sunrise and sunset
Times for 15-Oct-2018
 Local
(UTC-4)
 Zulu
(UTC)
Morning civil twilight06:4610:46
Sunrise07:1311:13
Sunset18:2322:23
Evening civil twilight18:5022:50

Current date and time
Zulu (UTC)  15-Oct-2018 21:45:53
Local (UTC-4)  15-Oct-2018 17:45:53
 
METAR
KDOV 
12nm SE 
152124Z AUTO 19011KT 10SM FEW110 22/19 A2996 RMK AO2 DZB15E24 SLP149 $
KILG 
22nm N 
152051Z 21011KT 10SM BKN100 20/18 A2997 RMK AO2 RAE1953 SLP147 P0001 60001 T02000178 58016
KMIV 
24nm E 
152054Z AUTO VRB05KT 10SM CLR 21/18 A2998 RMK AO2 SLP151 T02110178 58016
KAPG 
24nm NW 
152046Z 22007KT 7SM -RA BKN070 OVC140 19/18 A2997 RMK RAE1946RAB04E17 SLP152 57017
TAF
KDOV 
12nm SE 
151745Z 1517/1622 19015G20KT 9999 BKN050 QNH2995INS BECMG 1522/1523 26012G18KT 9999 SCT008 BKN020 510104 QNH2995INS BECMG 1602/1603 31015G25KT 9000 -SHRA OVC015 510104 QNH2995INS TEMPO 1603/1605 32028G36KT 2400 +TSRA BKN010 OVC025CB BECMG 1606/1607 34012G18KT 9999 NSW BKN035 510104 QNH3006INS BECMG 1614/1615 32009KT 9999 SCT100 QNH3007INS TX23/1517Z TN11/1614Z
NOTAMs
Click for the latest NOTAMs
NOTAMs are issued by the DoD/FAA and will open in a separate window not controlled by AirNav.

 

 
 

FBO, Fuel Providers, and Aircraft Ground Support

  
 Business Name 
 
 Contact 
 
 Services / Description 
 
Fuel Prices
 
Comments
  
Smyrna Airport 302-653-8314
[email]
Aviation fuel, Aircraft parking (ramp or tiedown), Public telephone, Pilots lounge / snooze room, Restrooms

More info about Smyrna Airport
independent
100LL
AS $5.35 
 Updated 01-Oct-2018
 
   write
AS=Assisted/Self Service
Update Fuel Prices
 

Would you like to see your business listed on this page?

 If your business provides an interesting product or service to pilots, flight crews, aircraft, or users of the Smyrna Airport, you should consider listing it here.  To start the listing process, click on the button below
 
Add a business
 

Other Pages about Smyrna Airport

Update a link
 
Copyright © AirNav, LLC. All rights reserved. Privacy Policy  Contact